Starling 3

operational
NORAD ID: 57389 Int'l Des: 2023-100 Owner: ARC Country: US
LEOCIRCULARRETROGRADE

关于 Starling 3

正在加载描述...

实时位置

正在加载3D地球...

即将过境

高度历史

Altitude vs Time

uPlot chart will show altitude changes over time

两行轨道根数

1 57389U 23100D 26061.52944860 .00008669 00000-0 52382-3 0 9993
2 57389 99.5086 56.4410 0006697 94.7118 265.4870 15.11008288143957
Epoch: Mar 2, 2026 • Age: 36 hours

当前状态

高度 565.7 km
速度 7.57 km/s
星下点 -80.06°S, 177.59°W
发射日期 Jul 18, 2023
运行时间 2.6 years
类型 other

技术详情

分类 Payload
质量 12.00 kg
干质量 12.00 kg
总质量 12.00 kg
长度 0.30 m
直径 0.20 m
跨度 0.50 m
形状 Box + 2 pan
制造商 BLCAN
平台类型 Cubesat 6U
阶段状态 In Orbit
所有者/国家 ARC/US

大型星座

Loading constellations...